Weather History for Cross City, FL

Change the Weather History Date:

Saturday, March 9, 2013

  Actual Average Record
Temperature  
Mean Temperature 56 °F 61 °F  
Max Temperature 75 °F 75 °F 81 °F (2011)
Min Temperature 36 °F 47 °F 28 °F (2008)
Degree Days  
Heating Degree Days 9 5  
Month to date heating degree days 134 55  
Since 1 July heating degree days 944 1175  
Cooling Degree Days 0 1  
Month to date cooling degree days 0 9  
Year to date cooling degree days 96 36  
Growing Degree Days 6 (Base 50)    
Moisture  
Dew Point 40 °F    
Average Humidity 57    
Maximum Humidity 92    
Minimum Humidity 25    
Precipitation  
Precipitation 0.00 in 0.14 in 1.37 in (2003)
Month to date precipitation 0.01 1.17  
Year to date precipitation 3.52 8.48  
Sea Level Pressure  
Sea Level Pressure 30.21 in    
Wind  
Wind Speed 3 mph (East)    
Max Wind Speed 12 mph    
Max Gust Speed 15 mph    
T = Trace of Precipitation, MM = Missing Value Source: NWS Daily Summary

Daily Weather History Graph

Daily Weather History Graph

Search for Another Location

Airport:

Trip Planner

Search our weather history database for the weather conditions in past years. The results will help you decide how hot, cold, wet, or windy it might be!

Date:

Astronomy

Mar. 09, 2013 Rise Set
Actual Time 6:48 AM EST 6:37 PM EST
Civil Twilight 6:25 AM EST 7:01 PM EST
Nautical Twilight 5:57 AM EST 7:28 PM EST
Astronomical Twilight 5:29 AM EST 7:56 PM EST
Moon 5:04 AM EST (3/9) 4:43 PM EST (3/9)
Length of Visible Light 12h 35m
Length of Day
11h 48m
Waning Crescent, 5% of the Moon is Illuminated
Mar 9
Waning Crescent
Mar 11
New
Mar 19
First Quarter
Mar 27
Full
Apr 3
Last Quarter

Hourly Weather History & Observations

Time (EST) Temp. Dew Point Humidity Pressure Visibility Wind Dir Wind Speed Gust Speed Precip Events Conditions
12:53 AM 53.1 °F 43.0 °F 69% 30.21 in - ENE 3.5 mph - N/A   Unknown
1:53 AM 46.9 °F 41.0 °F 80% 30.22 in - Calm Calm - N/A   Unknown
2:53 AM 43.0 °F 39.9 °F 89% 30.19 in - Calm Calm - N/A   Unknown
3:53 AM 41.0 °F 37.9 °F 89% 30.19 in - Calm Calm - N/A   Unknown
4:53 AM 39.0 °F 36.0 °F 89% 30.20 in - Calm Calm - N/A   Unknown
5:53 AM 37.0 °F 34.0 °F 89% 30.21 in - Calm Calm - N/A   Unknown
6:53 AM 37.0 °F 34.0 °F 89% 30.23 in - Calm Calm - N/A   Unknown
7:53 AM 44.1 °F 42.1 °F 93% 30.25 in - Calm Calm - N/A   Unknown
8:53 AM 55.9 °F 46.0 °F 69% 30.27 in - Calm Calm - N/A   Unknown
9:53 AM 61.0 °F 43.0 °F 52% 30.27 in - ESE 6.9 mph - N/A   Unknown
10:53 AM 66.0 °F 39.0 °F 37% 30.26 in - Variable 4.6 mph - N/A   Unknown
11:53 AM 69.1 °F 37.0 °F 31% 30.25 in - East 8.1 mph - N/A   Unknown
12:53 PM 70.0 °F 37.0 °F 30% 30.23 in - Variable 6.9 mph - N/A   Unknown
1:53 PM 72.0 °F 37.0 °F 28% 30.20 in - ENE 5.8 mph - N/A   Unknown
2:53 PM 73.0 °F 37.0 °F 27% 30.18 in - East 9.2 mph - N/A   Unknown
3:53 PM 73.0 °F 36.0 °F 26% 30.17 in - NE 5.8 mph - N/A   Unknown
4:53 PM 73.0 °F 36.0 °F 26% 30.18 in - Variable 3.5 mph - N/A   Unknown
5:53 PM 71.1 °F 37.0 °F 29% 30.18 in - Calm Calm - N/A   Unknown
6:53 PM 64.0 °F 42.1 °F 45% 30.18 in - Calm Calm - N/A   Unknown
7:53 PM 61.0 °F 42.1 °F 50% 30.19 in - Calm Calm - N/A   Unknown
8:53 PM 61.0 °F 46.0 °F 58% 30.20 in - East 3.5 mph - N/A   Unknown
9:53 PM 60.1 °F 46.9 °F 62% 30.21 in - East 4.6 mph - N/A   Unknown
10:53 PM 57.9 °F 48.0 °F 70% 30.22 in - East 4.6 mph - N/A   Unknown
11:53 PM 57.0 °F 48.0 °F 72% 30.20 in - Variable 3.5 mph - N/A   Unknown